TGW38 WSSS-YMML

Flight info

Callsign TGW38
Flight time N/A
Altitude 39000
Route ANITO7A ANITO B470 PKP L895 SAPDA A585 GUKON/N0476F410 A585 AD V255 BENDO Y12 ARBEY ARBEY8A
Aircraft B789/H-SDE2E3GHIJ3J4J5LM1ORWXY/LB1D1

Departure

Time N/A
Airport Singapore Changi Airport (WSSS)

Arrival

Time 2026-05-01 14:52
Airport Melbourne Airport (YMML)
Time Latitude Longitude Altitude Speed Heading
2026-05-01 13:51 -33.98387 136.81395 40952 ft 552 kts 124°
2026-05-01 13:52 -34.00579 136.85199 40954 ft 552 kts 124°
2026-05-01 13:52 -34.04954 136.92801 40954 ft 551 kts 124°
2026-05-01 13:53 -34.09308 137.00383 40952 ft 549 kts 124°
2026-05-01 13:53 -34.15814 137.11752 40952 ft 548 kts 124°
2026-05-01 13:54 -34.20111 137.19269 40954 ft 547 kts 124°
2026-05-01 13:54 -34.24430 137.26843 40952 ft 546 kts 124°
2026-05-01 13:55 -34.28736 137.34412 40952 ft 546 kts 124°
2026-05-01 13:55 -34.33032 137.41981 40943 ft 546 kts 124°
2026-05-01 13:56 -34.37324 137.49558 40945 ft 546 kts 124°
2026-05-01 13:56 -34.41579 137.57087 40943 ft 545 kts 124°
2026-05-01 13:57 -34.45853 137.64665 40943 ft 545 kts 124°
2026-05-01 13:57 -34.50120 137.72246 40943 ft 545 kts 124°
2026-05-01 13:58 -34.54388 137.79845 40943 ft 545 kts 124°
2026-05-01 13:58 -34.58644 137.87443 40944 ft 544 kts 123°
2026-05-01 13:59 -34.62894 137.95048 40945 ft 544 kts 123°
2026-05-01 13:59 -34.67147 138.02663 40943 ft 544 kts 123°
2026-05-01 14:00 -34.71391 138.10280 40943 ft 544 kts 123°
2026-05-01 14:00 -34.75622 138.17894 40944 ft 543 kts 123°
2026-05-01 14:01 -34.79849 138.25517 40943 ft 543 kts 123°
2026-05-01 14:01 -34.84065 138.33138 40943 ft 542 kts 123°
2026-05-01 14:02 -34.88272 138.40758 40937 ft 542 kts 123°
2026-05-01 14:02 -34.92474 138.48386 40934 ft 542 kts 123°
2026-05-01 14:03 -34.95896 138.56479 40934 ft 539 kts 110°
2026-05-01 14:03 -34.98604 138.64996 40933 ft 538 kts 108°
2026-05-01 14:04 -35.01180 138.73559 40943 ft 538 kts 108°
2026-05-01 14:04 -35.03314 138.80684 40944 ft 538 kts 108°
2026-05-01 14:05 -35.06329 138.90699 40943 ft 538 kts 108°
2026-05-01 14:05 -35.08913 138.99274 40943 ft 538 kts 108°
2026-05-01 14:06 -35.11495 139.07858 40944 ft 538 kts 108°
2026-05-01 14:06 -35.14068 139.16444 40943 ft 538 kts 108°
2026-05-01 14:07 -35.16632 139.25024 40943 ft 537 kts 108°
2026-05-01 14:08 -35.20447 139.37841 40943 ft 537 kts 108°
2026-05-01 14:08 -35.22988 139.46411 40952 ft 536 kts 108°
2026-05-01 14:09 -35.25588 139.54967 40953 ft 537 kts 111°
2026-05-01 14:09 -35.28696 139.63281 40952 ft 537 kts 114°
2026-05-01 14:10 -35.31920 139.71539 40952 ft 537 kts 114°
2026-05-01 14:10 -35.35065 139.79830 40961 ft 536 kts 113°
2026-05-01 14:11 -35.38148 139.88143 40961 ft 536 kts 112°
2026-05-01 14:11 -35.42743 140.00641 40970 ft 536 kts 112°
2026-05-01 14:12 -35.45802 140.08977 40970 ft 535 kts 112°
2026-05-01 14:12 -35.48849 140.17298 40972 ft 535 kts 112°
2026-05-01 14:13 -35.51375 140.24212 40981 ft 535 kts 112°
2026-05-01 14:13 -35.54925 140.33954 40983 ft 534 kts 112°
2026-05-01 14:14 -35.57936 140.42240 40989 ft 535 kts 112°
2026-05-01 14:14 -35.60958 140.50581 40990 ft 535 kts 112°
2026-05-01 14:15 -35.63976 140.58931 40998 ft 535 kts 112°
2026-05-01 14:15 -35.66989 140.67291 41007 ft 535 kts 112°
2026-05-01 14:16 -35.69993 140.75647 41014 ft 534 kts 112°
2026-05-01 14:16 -35.72992 140.84011 41033 ft 534 kts 112°
2026-05-01 14:17 -35.75987 140.92386 41028 ft 534 kts 112°
2026-05-01 14:17 -35.78975 141.00764 41032 ft 534 kts 112°
2026-05-01 14:18 -35.81959 141.09156 41037 ft 534 kts 112°
2026-05-01 14:18 -35.84435 141.16136 41043 ft 534 kts 112°
2026-05-01 14:19 -35.87905 141.25943 41050 ft 534 kts 112°
2026-05-01 14:19 -35.90864 141.34330 41056 ft 533 kts 112°
2026-05-01 14:20 -35.95289 141.46918 41070 ft 532 kts 112°
2026-05-01 14:21 -35.98208 141.55250 41074 ft 532 kts 112°
2026-05-01 14:21 -36.01143 141.63648 41083 ft 532 kts 112°
2026-05-01 14:22 -36.05526 141.76234 41094 ft 531 kts 112°
2026-05-01 14:22 -36.08439 141.84631 41093 ft 531 kts 112°
2026-05-01 14:23 -36.11349 141.93037 41105 ft 532 kts 112°
2026-05-01 14:23 -36.14251 142.01447 41103 ft 532 kts 112°
2026-05-01 14:24 -36.17150 142.09870 41115 ft 532 kts 112°
2026-05-01 14:24 -36.20043 142.18293 41125 ft 532 kts 112°
2026-05-01 14:25 -36.22928 142.26728 41128 ft 532 kts 112°
2026-05-01 14:25 -36.25797 142.35135 41128 ft 531 kts 111°
2026-05-01 14:26 -36.29841 142.47026 41137 ft 530 kts 111°
2026-05-01 14:27 -36.32698 142.55452 41137 ft 530 kts 111°
2026-05-01 14:27 -36.35064 142.62452 41146 ft 529 kts 111°
2026-05-01 14:28 -36.37907 142.70880 40961 ft 528 kts 111°
2026-05-01 14:28 -36.39774 142.76429 40631 ft 525 kts 111°
2026-05-01 14:28 -36.41179 142.80611 40380 ft 525 kts 111°
2026-05-01 14:28 -36.42127 142.83437 40215 ft 524 kts 111°
2026-05-01 14:29 -36.44901 142.91714 39547 ft 521 kts 111°
2026-05-01 14:30 -36.49082 143.04269 37253 ft 523 kts 111°
2026-05-01 14:30 -36.50467 143.08440 36579 ft 521 kts 111°
2026-05-01 14:30 -36.51847 143.12597 35885 ft 519 kts 111°
2026-05-01 14:31 -36.54589 143.20875 34480 ft 516 kts 111°
2026-05-01 14:31 -36.55944 143.24976 33926 ft 510 kts 111°
2026-05-01 14:31 -36.57284 143.29036 33375 ft 505 kts 110°
2026-05-01 14:31 -36.58614 143.33067 32853 ft 500 kts 110°
2026-05-01 14:32 -36.59926 143.37055 32309 ft 496 kts 110°
2026-05-01 14:32 -36.61226 143.41009 31766 ft 491 kts 110°
2026-05-01 14:32 -36.62512 143.44927 31228 ft 487 kts 110°
2026-05-01 14:32 -36.63789 143.48820 30700 ft 483 kts 110°
2026-05-01 14:33 -36.65052 143.52677 30176 ft 479 kts 110°
2026-05-01 14:33 -36.66302 143.56504 29655 ft 475 kts 110°
2026-05-01 14:33 -36.67541 143.60300 29137 ft 471 kts 110°
2026-05-01 14:33 -36.68765 143.64057 28623 ft 466 kts 110°
2026-05-01 14:34 -36.69980 143.67788 28110 ft 462 kts 110°
2026-05-01 14:34 -36.71168 143.71437 27610 ft 457 kts 110°
2026-05-01 14:34 -36.72358 143.75094 27101 ft 454 kts 110°
2026-05-01 14:34 -36.73537 143.78726 26600 ft 450 kts 110°
2026-05-01 14:35 -36.74700 143.82320 26095 ft 445 kts 110°
2026-05-01 14:35 -36.75855 143.85889 25592 ft 441 kts 110°
2026-05-01 14:35 -36.76997 143.89423 25090 ft 438 kts 109°
2026-05-01 14:35 -36.78130 143.92927 24590 ft 433 kts 109°
2026-05-01 14:36 -36.79251 143.96399 24102 ft 429 kts 109°
2026-05-01 14:36 -36.80361 143.99841 23600 ft 425 kts 109°
2026-05-01 14:36 -36.81458 144.03253 23100 ft 422 kts 109°
2026-05-01 14:36 -36.82544 144.06635 22602 ft 419 kts 109°
2026-05-01 14:37 -36.83621 144.09994 22096 ft 415 kts 109°
2026-05-01 14:37 -36.84691 144.13334 21604 ft 412 kts 109°
2026-05-01 14:37 -36.85752 144.16644 21098 ft 409 kts 109°
2026-05-01 14:37 -36.86804 144.19931 20605 ft 407 kts 109°
2026-05-01 14:38 -36.87850 144.23207 20096 ft 404 kts 109°
2026-05-01 14:38 -36.88884 144.26451 19606 ft 401 kts 109°
2026-05-01 14:38 -36.89913 144.29681 19110 ft 398 kts 109°
2026-05-01 14:38 -36.90934 144.32887 18617 ft 395 kts 109°
2026-05-01 14:39 -36.91954 144.36060 18125 ft 393 kts 110°
2026-05-01 14:39 -36.93305 144.39025 17653 ft 393 kts 124°
2026-05-01 14:39 -36.94997 144.41695 17179 ft 391 kts 128°
2026-05-01 14:39 -36.96757 144.44278 16670 ft 389 kts 129°
2026-05-01 14:40 -36.98499 144.46796 16171 ft 387 kts 129°
2026-05-01 14:40 -37.00262 144.49331 15691 ft 384 kts 129°
2026-05-01 14:40 -37.02009 144.51840 15203 ft 381 kts 129°
2026-05-01 14:40 -37.03741 144.54326 14722 ft 378 kts 129°
2026-05-01 14:41 -37.05461 144.56795 14240 ft 375 kts 129°
2026-05-01 14:41 -37.07168 144.59247 13760 ft 371 kts 129°
2026-05-01 14:41 -37.08852 144.61669 13294 ft 368 kts 129°
2026-05-01 14:41 -37.10525 144.64083 12816 ft 364 kts 129°
2026-05-01 14:42 -37.12174 144.66465 12341 ft 360 kts 129°
2026-05-01 14:42 -37.13820 144.68816 11877 ft 356 kts 129°
2026-05-01 14:42 -37.15462 144.71135 11428 ft 354 kts 131°
2026-05-01 14:42 -37.17405 144.73014 10958 ft 355 kts 152°
2026-05-01 14:43 -37.19734 144.73994 10560 ft 350 kts 167°
2026-05-01 14:43 -37.22062 144.74613 10409 ft 334 kts 168°
2026-05-01 14:43 -37.24296 144.75184 10210 ft 321 kts 168°
2026-05-01 14:43 -37.26455 144.75742 10033 ft 311 kts 168°
2026-05-01 14:44 -37.28543 144.76290 9730 ft 305 kts 167°
2026-05-01 14:44 -37.32683 144.77389 9074 ft 305 kts 167°
2026-05-01 14:44 -37.34782 144.77909 8805 ft 303 kts 170°
2026-05-01 14:45 -37.36843 144.78264 8589 ft 302 kts 172°
2026-05-01 14:45 -37.41002 144.78933 8145 ft 300 kts 172°
2026-05-01 14:45 -37.43076 144.79284 7923 ft 300 kts 172°
2026-05-01 14:46 -37.45145 144.79638 7666 ft 299 kts 172°
2026-05-01 14:46 -37.49249 144.80204 6800 ft 296 kts 179°
2026-05-01 14:46 -37.51299 144.80176 6357 ft 294 kts 181°
2026-05-01 14:47 -37.53342 144.80109 5893 ft 293 kts 181°
2026-05-01 14:47 -37.55381 144.80035 5417 ft 293 kts 181°
2026-05-01 14:47 -37.57412 144.79957 5017 ft 291 kts 181°
2026-05-01 14:48 -37.61286 144.79795 4661 ft 269 kts 181°
2026-05-01 14:48 -37.63147 144.79709 4536 ft 258 kts 181°
2026-05-01 14:48 -37.66568 144.79537 4342 ft 236 kts 182°
2026-05-01 14:49 -37.69576 144.79371 4074 ft 196 kts 181°
2026-05-01 14:49 -37.71968 144.79904 3606 ft 164 kts 134°
2026-05-01 14:50 -37.72652 144.81484 3060 ft 155 kts 99°
2026-05-01 14:50 -37.72183 144.84581 1945 ft 145 kts 17°
2026-05-01 14:51 -37.71156 144.84569 1421 ft 153 kts 356°
2026-05-01 14:51 -37.68964 144.84159 478 ft 159 kts 353°
2026-05-01 14:52 -37.67287 144.83858 385 ft 31 kts 352°
2026-05-01 14:52 -37.67104 144.83832 391 ft 25 kts 358°
2026-05-01 14:52 -37.66797 144.83935 397 ft 23 kts 22°
2026-05-01 14:53 -37.66721 144.84086 398 ft 21 kts 95°
2026-05-01 14:53 -37.66834 144.84199 392 ft 24 kts 168°
2026-05-01 14:53 -37.67003 144.84233 393 ft 20 kts 168°
2026-05-01 14:53 -37.67052 144.84364 393 ft 15 kts 81°
2026-05-01 14:54 -37.67042 144.84427 390 ft 7 kts 76°
2026-05-01 14:54 -37.67015 144.84461 395 ft 4 kts 17°
2026-05-01 14:54 -37.66982 144.84446 396 ft 7 kts 332°
2026-05-01 14:54 -37.66946 144.84420 396 ft 0 kts 331°